Location: Austin
(30.3000°N, 97.7500°W)
Time: 00:47:23
(UTC-05:00)

Cosmos 1867 - Pass Details

Date: 15 May 2024
Orbit: 772 x 802 km, 65.0° (Epoch: 19 May)

Event Time Altitude Azimuth Distance (km) Brightness Sun altitude
Rises 20:36:59 0° 336° (NNW) 3,310 7.7 -4.5°
Reaches altitude 10° 20:39:26 10° 339° (NNW) 2,375 6.8 -5.0°
Maximum altitude 20:44:53 67° 62° (ENE) 862 3.7 -6.0°
Drops below altitude 10° 20:50:15 10° 145° (SE) 2,348 5.5 -7.0°
Enters shadow 20:51:28 - 146° (SE) 2,811 5.9 -7.3°
